TimeCDT,TemperatureF,Dew PointF,Humidity,Sea Level PressureIn,VisibilityMPH,Wind Direction,Wind SpeedMPH,Gust SpeedMPH,PrecipitationIn,Events,Conditions,WindDirDegrees,DateUTC
12:58 AM,47.3,36.0,65,29.80,10.0,North,26.5,40.3,N/A,,Mostly Cloudy,360,2013-03-17 05:58:00
1:58 AM,46.4,35.4,66,29.80,10.0,North,25.3,29.9,N/A,,Mostly Cloudy,360,2013-03-17 06:58:00
2:58 AM,44.6,34.3,67,29.81,10.0,North,28.8,35.7,N/A,,Mostly Cloudy,10,2013-03-17 07:58:00
3:58 AM,43.2,33.8,70,29.83,10.0,North,20.7,28.8,N/A,,Clear,10,2013-03-17 08:58:00
4:58 AM,41.9,33.6,72,29.81,10.0,North,18.4,25.3,N/A,,Partly Cloudy,360,2013-03-17 09:58:00
5:28 AM,41.0,32.0,70,29.83,10.0,North,18.4,26.5,N/A,,Mostly Cloudy,10,2013-03-17 10:28:00
5:58 AM,41.9,33.3,71,29.84,10.0,North,19.6,28.8,N/A,,Mostly Cloudy,360,2013-03-17 10:58:00
6:03 AM,41.0,32.0,70,29.85,10.0,North,20.7,28.8,N/A,,Scattered Clouds,10,2013-03-17 11:03:00
6:58 AM,39.9,32.7,75,29.85,10.0,North,12.7,24.2,N/A,,Partly Cloudy,360,2013-03-17 11:58:00
7:58 AM,38.3,32.2,79,29.85,10.0,North,15.0,21.9,N/A,,Partly Cloudy,10,2013-03-17 12:58:00
8:58 AM,39.2,32.7,78,29.87,10.0,North,10.4,-,N/A,,Partly Cloudy,350,2013-03-17 13:58:00
9:58 AM,41.7,33.1,71,29.87,10.0,North,12.7,-,N/A,,Partly Cloudy,10,2013-03-17 14:58:00
10:23 AM,42.8,32.0,66,29.88,10.0,North,12.7,-,N/A,,Mostly Cloudy,350,2013-03-17 15:23:00
10:53 AM,42.8,33.8,70,29.89,10.0,North,12.7,-,N/A,,Overcast,350,2013-03-17 15:53:00
10:58 AM,42.3,34.0,72,29.88,10.0,North,10.4,-,N/A,,Overcast,350,2013-03-17 15:58:00
11:48 AM,46.4,35.6,66,29.88,10.0,NNW,12.7,-,N/A,,Overcast,340,2013-03-17 16:48:00
11:58 AM,45.3,34.7,66,29.88,10.0,NNW,11.5,-,N/A,,Overcast,340,2013-03-17 16:58:00
12:58 PM,47.5,36.3,65,29.85,10.0,North,6.9,-,N/A,,Overcast,360,2013-03-17 17:58:00
1:08 PM,48.2,37.4,66,29.84,10.0,Variable,4.6,-,N/A,,Scattered Clouds,0,2013-03-17 18:08:00
1:58 PM,50.9,38.5,62,29.80,10.0,Variable,2.3,-,N/A,,Clear,0,2013-03-17 18:58:00
2:58 PM,53.6,39.6,59,29.76,10.0,WNW,6.9,-,N/A,,Clear,290,2013-03-17 19:58:00
3:58 PM,54.9,40.3,58,29.73,10.0,Variable,2.3,-,N/A,,Clear,0,2013-03-17 20:58:00
4:56 PM,57.2,41.0,55,29.70,10.0,Variable,1.2,-,N/A,,Clear,0,2013-03-17 21:56:00
5:58 PM,56.7,41.7,57,29.68,10.0,Variable,2.3,-,N/A,,Clear,0,2013-03-17 22:58:00
6:58 PM,57.0,41.9,57,29.68,10.0,ESE,5.8,-,N/A,,Clear,110,2013-03-17 23:58:00
7:58 PM,52.2,42.3,69,29.69,10.0,ESE,8.1,-,N/A,,Mostly Cloudy,110,2013-03-18 00:58:00
8:58 PM,50.9,42.8,74,29.68,10.0,East,9.2,-,N/A,,Partly Cloudy,100,2013-03-18 01:58:00
9:58 PM,52.3,41.4,66,29.65,10.0,ESE,8.1,-,N/A,,Clear,120,2013-03-18 02:58:00
10:58 PM,48.6,40.8,75,29.65,10.0,SE,6.9,-,N/A,,Clear,130,2013-03-18 03:58:00
11:58 PM,46.4,41.0,81,29.65,10.0,ESE,3.5,-,N/A,,Clear,110,2013-03-18 04:58:00